Year,Month,Day,Hour,Minute,Value (Times are PST for temperature in C)
2016,03,28,00,00,3.60
2016,03,28,00,01,3.60
2016,03,28,00,02,3.60
2016,03,28,00,03,3.60
2016,03,28,00,04,3.60
2016,03,28,00,05,3.60
2016,03,28,00,06,3.60
2016,03,28,00,07,3.60
2016,03,28,00,08,3.60
2016,03,28,00,09,3.60
2016,03,28,00,10,3.60
2016,03,28,00,11,3.60
2016,03,28,00,12,3.60
2016,03,28,00,13,3.60
2016,03,28,00,14,3.60
2016,03,28,00,15,3.60
2016,03,28,00,16,3.50
2016,03,28,00,17,3.50
2016,03,28,00,18,3.50
2016,03,28,00,19,3.40
2016,03,28,00,20,3.40
2016,03,28,00,21,3.40
2016,03,28,00,22,3.40
2016,03,28,00,23,3.40
2016,03,28,00,24,3.40
2016,03,28,00,25,3.30
2016,03,28,00,26,3.30
2016,03,28,00,27,3.30
2016,03,28,00,28,3.30
2016,03,28,00,29,3.30
2016,03,28,00,30,3.30
2016,03,28,00,31,3.30
2016,03,28,00,32,3.20
2016,03,28,00,33,3.20
2016,03,28,00,34,3.20
2016,03,28,00,35,3.20
2016,03,28,00,36,3.20
2016,03,28,00,37,3.20
2016,03,28,00,38,3.20
2016,03,28,00,40,3.20
2016,03,28,00,41,3.20
2016,03,28,00,42,3.20
2016,03,28,00,43,3.20
2016,03,28,00,44,3.20
2016,03,28,00,45,3.20
2016,03,28,00,46,3.10
2016,03,28,00,47,3.10
2016,03,28,00,48,3.10
2016,03,28,00,49,3.10
2016,03,28,00,50,3.10
2016,03,28,00,51,3.10
2016,03,28,00,52,3.10
2016,03,28,00,53,3.10
2016,03,28,00,54,3.10
2016,03,28,00,55,3.10
2016,03,28,00,56,3.10
2016,03,28,00,57,3.10
2016,03,28,00,58,3.10
2016,03,28,00,59,3.10
2016,03,28,01,00,3.10
2016,03,28,01,01,3.10
2016,03,28,01,02,3.10
2016,03,28,01,03,3.20
2016,03,28,01,04,3.20
2016,03,28,01,05,3.20
2016,03,28,01,06,3.20
2016,03,28,01,07,3.20
2016,03,28,01,08,3.20
2016,03,28,01,09,3.20
2016,03,28,01,10,3.20
2016,03,28,01,11,3.20
2016,03,28,01,12,3.20
2016,03,28,01,13,3.20
2016,03,28,01,14,3.20
2016,03,28,01,15,3.20
2016,03,28,01,16,3.20
2016,03,28,01,17,3.20
2016,03,28,01,18,3.20
2016,03,28,01,19,3.20
2016,03,28,01,20,3.30
2016,03,28,01,21,3.30
2016,03,28,01,22,3.30
2016,03,28,01,23,3.30
2016,03,28,01,24,3.30
2016,03,28,01,25,3.30
2016,03,28,01,26,3.30
2016,03,28,01,27,3.30
2016,03,28,01,28,3.30
2016,03,28,01,29,3.30
2016,03,28,01,30,3.30
2016,03,28,01,31,3.30
2016,03,28,01,33,3.20
2016,03,28,01,34,3.20
2016,03,28,01,35,3.20
2016,03,28,01,36,3.20
2016,03,28,01,37,3.20
2016,03,28,01,38,3.10
2016,03,28,01,39,3.10
2016,03,28,01,40,3.10
2016,03,28,01,41,3.10
2016,03,28,01,42,3.10
2016,03,28,01,43,3.10
2016,03,28,01,44,3.00
2016,03,28,01,45,3.00
2016,03,28,01,46,3.00
2016,03,28,01,47,2.90
2016,03,28,01,48,2.90
2016,03,28,01,49,2.90
2016,03,28,01,50,2.90
2016,03,28,01,51,2.90
2016,03,28,01,52,2.90
2016,03,28,01,53,2.90
2016,03,28,01,54,2.90
2016,03,28,01,55,2.90
2016,03,28,01,56,2.90
2016,03,28,01,57,2.80
2016,03,28,01,58,2.80
2016,03,28,01,59,2.80
2016,03,28,02,00,2.80
2016,03,28,02,01,2.80
2016,03,28,02,02,2.80
2016,03,28,02,03,2.80
2016,03,28,02,04,2.80
2016,03,28,02,05,2.80
2016,03,28,02,06,2.80
2016,03,28,02,07,2.80
2016,03,28,02,08,2.80
2016,03,28,02,09,2.80
2016,03,28,02,10,2.80
2016,03,28,02,11,2.80
2016,03,28,02,12,2.80
2016,03,28,02,13,2.80
2016,03,28,02,14,2.90
2016,03,28,02,15,2.80
2016,03,28,02,16,2.90
2016,03,28,02,17,2.80
2016,03,28,02,18,2.80
2016,03,28,02,19,2.80
2016,03,28,02,20,2.80
2016,03,28,02,21,2.80
2016,03,28,02,22,2.90
2016,03,28,02,23,2.90
2016,03,28,02,24,2.90
2016,03,28,02,25,2.90
2016,03,28,02,26,2.90
2016,03,28,02,27,2.90
2016,03,28,02,28,2.90
2016,03,28,02,29,2.90
2016,03,28,02,30,2.90
2016,03,28,02,31,2.90
2016,03,28,02,32,2.90
2016,03,28,02,33,2.90
2016,03,28,02,34,3.00
2016,03,28,02,35,3.00
2016,03,28,02,36,3.00
2016,03,28,02,37,3.00
2016,03,28,02,38,3.00
2016,03,28,02,39,3.00
2016,03,28,02,40,3.00
2016,03,28,02,41,3.00
2016,03,28,02,42,3.00
2016,03,28,02,43,3.10
2016,03,28,02,44,3.10
2016,03,28,02,45,3.10
2016,03,28,02,46,3.10
2016,03,28,02,47,3.10
2016,03,28,02,48,3.10
2016,03,28,02,49,3.10
2016,03,28,02,50,3.10
2016,03,28,02,51,3.20
2016,03,28,02,52,3.20
2016,03,28,02,53,3.20
2016,03,28,02,54,3.20
2016,03,28,02,55,3.20
2016,03,28,02,56,3.20
2016,03,28,02,57,3.20
2016,03,28,02,58,3.20
2016,03,28,02,59,3.20
2016,03,28,03,00,3.30
2016,03,28,03,01,3.30
2016,03,28,03,02,3.30
2016,03,28,03,03,3.30
2016,03,28,03,04,3.30
2016,03,28,03,05,3.30
2016,03,28,03,06,3.30
2016,03,28,03,07,3.40
2016,03,28,03,08,3.40
2016,03,28,03,09,3.40
2016,03,28,03,10,3.40
2016,03,28,03,11,3.40
2016,03,28,03,12,3.40
2016,03,28,03,13,3.30
2016,03,28,03,14,3.30
2016,03,28,03,15,3.30
2016,03,28,03,16,3.30
2016,03,28,03,17,3.30
2016,03,28,03,18,3.30
2016,03,28,03,19,3.20
2016,03,28,03,20,3.20
2016,03,28,03,21,3.20
2016,03,28,03,22,3.20
2016,03,28,03,23,3.20
2016,03,28,03,24,3.20
2016,03,28,03,25,3.20
2016,03,28,03,26,3.10
2016,03,28,03,27,3.10
2016,03,28,03,28,3.10
2016,03,28,03,29,3.10
2016,03,28,03,30,3.10
2016,03,28,03,31,3.10
2016,03,28,03,32,3.10
2016,03,28,03,33,3.10
2016,03,28,03,34,3.10
2016,03,28,03,35,3.10
2016,03,28,03,36,3.10
2016,03,28,03,37,3.10
2016,03,28,03,38,3.10
2016,03,28,03,39,3.20
2016,03,28,03,40,3.20
2016,03,28,03,41,3.20
2016,03,28,03,42,3.20
2016,03,28,03,43,3.20
2016,03,28,03,44,3.20
2016,03,28,03,45,3.20
2016,03,28,03,46,3.20
2016,03,28,03,47,3.20
2016,03,28,03,48,3.20
2016,03,28,03,49,3.20
2016,03,28,03,50,3.20
2016,03,28,03,51,3.20
2016,03,28,03,52,3.20
2016,03,28,03,53,3.20
2016,03,28,03,54,3.20
2016,03,28,03,55,3.20
2016,03,28,03,56,3.20
2016,03,28,03,57,3.30
2016,03,28,03,58,3.30
2016,03,28,03,59,3.30
2016,03,28,04,00,3.30
2016,03,28,04,01,3.30
2016,03,28,04,02,3.30
2016,03,28,04,03,3.30
2016,03,28,04,04,3.30
2016,03,28,04,05,3.30
2016,03,28,04,06,3.30
2016,03,28,04,07,3.30
2016,03,28,04,08,3.30
2016,03,28,04,09,3.30
2016,03,28,04,10,3.40
2016,03,28,04,11,3.40
2016,03,28,04,12,3.40
2016,03,28,04,13,3.40
2016,03,28,04,14,3.30
2016,03,28,04,15,3.30
2016,03,28,04,16,3.30
2016,03,28,04,17,3.30
2016,03,28,04,18,3.30
2016,03,28,04,19,3.30
2016,03,28,04,20,3.30
2016,03,28,04,21,3.30
2016,03,28,04,22,3.40
2016,03,28,04,23,3.40
2016,03,28,04,24,3.40
2016,03,28,04,25,3.40
2016,03,28,04,26,3.40
2016,03,28,04,27,3.40
2016,03,28,04,28,3.40
2016,03,28,04,29,3.40
2016,03,28,04,30,3.40
2016,03,28,04,31,3.40
2016,03,28,04,32,3.40
2016,03,28,04,33,3.40
2016,03,28,04,34,3.40
2016,03,28,04,35,3.40
2016,03,28,04,36,3.40
2016,03,28,04,37,3.40
2016,03,28,04,38,3.40
2016,03,28,04,39,3.40
2016,03,28,04,40,3.40
2016,03,28,04,41,3.40
2016,03,28,04,42,3.40
2016,03,28,04,43,3.40
2016,03,28,04,44,3.40
2016,03,28,04,45,3.40
2016,03,28,04,46,3.40
2016,03,28,04,47,3.40
2016,03,28,04,48,3.40
2016,03,28,04,49,3.40
2016,03,28,04,50,3.40
2016,03,28,04,51,3.40
2016,03,28,04,52,3.40
2016,03,28,04,53,3.40
2016,03,28,04,54,3.40
2016,03,28,04,55,3.40
2016,03,28,04,56,3.40
2016,03,28,04,57,3.40
2016,03,28,04,58,3.40
2016,03,28,04,59,3.40
2016,03,28,05,00,3.40
2016,03,28,05,01,3.40
2016,03,28,05,02,3.40
2016,03,28,05,03,3.30
2016,03,28,05,04,3.30
2016,03,28,05,05,3.30
2016,03,28,05,06,3.30
2016,03,28,05,07,3.30
2016,03,28,05,08,3.30
2016,03,28,05,09,3.30
2016,03,28,05,10,3.30
2016,03,28,05,11,3.20
2016,03,28,05,12,3.20
2016,03,28,05,13,3.20
2016,03,28,05,14,3.20
2016,03,28,05,15,3.10
2016,03,28,05,16,3.10
2016,03,28,05,17,3.10
2016,03,28,05,18,3.10
2016,03,28,05,19,3.10
2016,03,28,05,20,3.10
2016,03,28,05,21,3.10
2016,03,28,05,22,3.00
2016,03,28,05,23,3.00
2016,03,28,05,24,3.00
2016,03,28,05,25,3.00
2016,03,28,05,26,3.00
2016,03,28,05,27,3.00
2016,03,28,05,28,3.00
2016,03,28,05,29,3.00
2016,03,28,05,30,3.00
2016,03,28,05,31,3.00
2016,03,28,05,32,3.00
2016,03,28,05,33,3.00
2016,03,28,05,34,3.00
2016,03,28,05,35,2.90
2016,03,28,05,36,2.90
2016,03,28,05,37,2.90
2016,03,28,05,38,2.90
2016,03,28,05,39,2.90
2016,03,28,05,40,2.90
2016,03,28,05,41,2.80
2016,03,28,05,42,2.80
2016,03,28,05,43,2.80
2016,03,28,05,44,2.80
2016,03,28,05,45,2.80
2016,03,28,05,46,2.80
2016,03,28,05,47,2.80
2016,03,28,05,48,2.80
2016,03,28,05,49,2.80
2016,03,28,05,50,2.80
2016,03,28,05,51,2.80
2016,03,28,05,52,2.80
2016,03,28,05,53,2.80
2016,03,28,05,54,2.80
2016,03,28,05,55,2.80
2016,03,28,05,56,2.80
2016,03,28,05,57,2.80
2016,03,28,05,58,2.80
2016,03,28,05,59,2.80
2016,03,28,06,00,2.80
2016,03,28,06,01,2.80
2016,03,28,06,02,2.80
2016,03,28,06,03,2.80
2016,03,28,06,04,2.80
2016,03,28,06,05,2.80
2016,03,28,06,06,2.80
2016,03,28,06,07,2.80
2016,03,28,06,08,2.70
2016,03,28,06,09,2.70
2016,03,28,06,10,2.70
2016,03,28,06,11,2.70
2016,03,28,06,12,2.70
2016,03,28,06,13,2.70
2016,03,28,06,14,2.70
2016,03,28,06,15,2.70
2016,03,28,06,16,2.70
2016,03,28,06,17,2.70
2016,03,28,06,18,2.70
2016,03,28,06,19,2.70
2016,03,28,06,20,2.70
2016,03,28,06,21,2.70
2016,03,28,06,22,2.70
2016,03,28,06,23,2.70
2016,03,28,06,24,2.70
2016,03,28,06,25,2.70
2016,03,28,06,26,2.70
2016,03,28,06,27,2.70
2016,03,28,06,28,2.70
2016,03,28,06,29,2.70
2016,03,28,06,30,2.70
2016,03,28,06,31,2.60
2016,03,28,06,32,2.60
2016,03,28,06,33,2.60
2016,03,28,06,34,2.60
2016,03,28,06,35,2.60
2016,03,28,06,36,2.60
2016,03,28,06,37,2.50
2016,03,28,06,38,2.50
2016,03,28,06,39,2.40
2016,03,28,06,40,2.40
2016,03,28,06,41,2.40
2016,03,28,06,42,2.40
2016,03,28,06,43,2.40
2016,03,28,06,44,2.40
2016,03,28,06,45,2.40
2016,03,28,06,46,2.40
2016,03,28,06,47,2.40
2016,03,28,06,48,2.40
2016,03,28,06,49,2.40
2016,03,28,06,50,2.40
2016,03,28,06,51,2.40
2016,03,28,06,52,2.40
2016,03,28,06,53,2.40
2016,03,28,06,54,2.40
2016,03,28,06,55,2.40
2016,03,28,06,56,2.40
2016,03,28,06,57,2.40
2016,03,28,06,58,2.40
2016,03,28,06,59,2.40
2016,03,28,07,00,2.40
2016,03,28,07,01,2.40
2016,03,28,07,02,2.40
2016,03,28,07,03,2.40
2016,03,28,07,04,2.40
2016,03,28,07,05,2.40
2016,03,28,07,06,2.40
2016,03,28,07,07,2.40
2016,03,28,07,08,2.40
2016,03,28,07,09,2.40
2016,03,28,07,10,2.40
2016,03,28,07,11,2.40
2016,03,28,07,12,2.40
2016,03,28,07,13,2.40
2016,03,28,07,14,2.40
2016,03,28,07,15,2.40
2016,03,28,07,16,2.50
2016,03,28,07,17,2.50
2016,03,28,07,18,2.50
2016,03,28,07,19,2.50
2016,03,28,07,20,2.50
2016,03,28,07,21,2.50
2016,03,28,07,22,2.50
2016,03,28,07,23,2.50
2016,03,28,07,24,2.50
2016,03,28,07,25,2.50
2016,03,28,07,26,2.50
2016,03,28,07,27,2.40
2016,03,28,07,28,2.40
2016,03,28,07,29,2.40
2016,03,28,07,30,2.40
2016,03,28,07,31,2.40
2016,03,28,07,32,2.30
2016,03,28,07,33,2.30
2016,03,28,07,34,2.40
2016,03,28,07,35,2.30
2016,03,28,07,36,2.30
2016,03,28,07,37,2.30
2016,03,28,07,38,2.30
2016,03,28,07,39,2.20
2016,03,28,07,40,2.20
2016,03,28,07,41,2.20
2016,03,28,07,42,2.20
2016,03,28,07,43,2.20
2016,03,28,07,44,2.20
2016,03,28,07,45,2.10
2016,03,28,07,46,2.20
2016,03,28,07,47,2.20
2016,03,28,07,48,2.20
2016,03,28,07,49,2.20
2016,03,28,07,50,2.20
2016,03,28,07,51,2.20
2016,03,28,07,52,2.20
2016,03,28,07,53,2.20
2016,03,28,07,54,2.20
2016,03,28,07,55,2.20
2016,03,28,07,56,2.20
2016,03,28,07,57,2.30
2016,03,28,07,58,2.30
2016,03,28,07,59,2.30
2016,03,28,08,00,2.30
2016,03,28,08,01,2.30
2016,03,28,08,02,2.30
2016,03,28,08,03,2.30
2016,03,28,08,04,2.30
2016,03,28,08,05,2.30
2016,03,28,08,06,2.30
2016,03,28,08,07,2.30
2016,03,28,08,08,2.30
2016,03,28,08,09,2.30
2016,03,28,08,10,2.30
2016,03,28,08,11,2.30
2016,03,28,08,12,2.30
2016,03,28,08,13,2.30
2016,03,28,08,14,2.30
2016,03,28,08,15,2.30
2016,03,28,08,16,2.30
2016,03,28,08,17,2.30
2016,03,28,08,18,2.30
2016,03,28,08,19,2.30
2016,03,28,08,20,2.30
2016,03,28,08,21,2.30
2016,03,28,08,22,2.30
2016,03,28,08,23,2.30
2016,03,28,08,24,2.30
2016,03,28,08,25,2.30
2016,03,28,08,26,2.30
2016,03,28,08,27,2.30
2016,03,28,08,28,2.30
2016,03,28,08,29,2.30
2016,03,28,08,30,2.30
2016,03,28,08,31,2.20
2016,03,28,08,32,2.20
2016,03,28,08,33,2.20
2016,03,28,08,34,2.20
2016,03,28,08,35,2.30
2016,03,28,08,36,2.30
2016,03,28,08,37,2.30
2016,03,28,08,38,2.30
2016,03,28,08,39,2.30
2016,03,28,08,40,2.30
2016,03,28,08,41,2.30
2016,03,28,08,42,2.30
2016,03,28,08,43,2.20
2016,03,28,08,44,2.20
2016,03,28,08,45,2.20
2016,03,28,08,46,2.20
2016,03,28,08,47,2.20
2016,03,28,08,48,2.30
2016,03,28,08,49,2.30
2016,03,28,08,50,2.30
2016,03,28,08,51,2.30
2016,03,28,08,52,2.30
2016,03,28,08,53,2.30
2016,03,28,08,54,2.30
2016,03,28,08,55,2.30
2016,03,28,08,56,2.30
2016,03,28,08,57,2.30
2016,03,28,08,58,2.30
2016,03,28,08,59,2.30
2016,03,28,09,00,2.30
2016,03,28,09,01,2.30
2016,03,28,09,02,2.20
2016,03,28,09,03,2.20
2016,03,28,09,04,2.20
2016,03,28,09,05,2.20
2016,03,28,09,06,2.20
2016,03,28,09,07,2.20
2016,03,28,09,08,2.30
2016,03,28,09,09,2.30
2016,03,28,09,10,2.30
2016,03,28,09,11,2.30
2016,03,28,09,12,2.30
2016,03,28,09,13,2.30
2016,03,28,09,14,2.30
2016,03,28,09,15,2.40
2016,03,28,09,16,2.40
2016,03,28,09,17,2.40
2016,03,28,09,18,2.40
2016,03,28,09,19,2.40
2016,03,28,09,20,2.50
2016,03,28,09,21,2.50
2016,03,28,09,22,2.50
2016,03,28,09,23,2.50
2016,03,28,09,24,2.50
2016,03,28,09,25,2.50
2016,03,28,09,26,2.50
2016,03,28,09,27,2.40
2016,03,28,09,28,2.50
2016,03,28,09,29,2.50
2016,03,28,09,30,2.50
2016,03,28,09,31,2.60
2016,03,28,09,32,2.60
2016,03,28,09,33,2.60
2016,03,28,09,34,2.60
2016,03,28,09,35,2.60
2016,03,28,09,36,2.70
2016,03,28,09,37,2.70
2016,03,28,09,38,2.70
2016,03,28,09,39,2.70
2016,03,28,09,40,2.70
2016,03,28,09,41,2.70
2016,03,28,09,42,2.70
2016,03,28,09,43,2.70
2016,03,28,09,44,2.70
2016,03,28,09,45,2.70
2016,03,28,09,46,2.80
2016,03,28,09,47,2.80
2016,03,28,09,48,2.80
2016,03,28,09,49,2.80
2016,03,28,09,50,2.80
2016,03,28,09,52,2.80
2016,03,28,09,53,2.80
2016,03,28,09,54,2.80
2016,03,28,09,55,2.90
2016,03,28,09,56,2.90
2016,03,28,09,57,2.80
2016,03,28,09,58,2.80
2016,03,28,09,59,2.80
2016,03,28,10,00,2.80
2016,03,28,10,01,2.80
2016,03,28,10,02,2.80
2016,03,28,10,03,2.80
2016,03,28,10,04,2.80
2016,03,28,10,05,2.80
2016,03,28,10,06,2.80
2016,03,28,10,07,2.80
2016,03,28,10,08,2.80
2016,03,28,10,09,2.90
2016,03,28,10,10,2.90
2016,03,28,10,11,2.80
2016,03,28,10,12,2.90
2016,03,28,10,13,2.90
2016,03,28,10,14,2.90
2016,03,28,10,15,2.90
2016,03,28,10,16,2.90
2016,03,28,10,17,3.00
2016,03,28,10,18,3.00
2016,03,28,10,19,3.00
2016,03,28,10,20,3.10
2016,03,28,10,21,3.10
2016,03,28,10,22,3.10
2016,03,28,10,23,3.10
2016,03,28,10,24,3.10
2016,03,28,10,25,3.10
2016,03,28,10,26,3.10
2016,03,28,10,27,3.20
2016,03,28,10,28,3.20
2016,03,28,10,29,3.30
2016,03,28,10,30,3.30
2016,03,28,10,31,3.30
2016,03,28,10,32,3.30
2016,03,28,10,33,3.20
2016,03,28,10,34,3.20
2016,03,28,10,35,3.30
2016,03,28,10,36,3.30
2016,03,28,10,37,3.30
2016,03,28,10,38,3.40
2016,03,28,10,39,3.40
2016,03,28,10,40,3.40
2016,03,28,10,41,3.40
2016,03,28,10,42,3.40
2016,03,28,10,43,3.50
2016,03,28,10,44,3.50
2016,03,28,10,45,3.50
2016,03,28,10,46,3.50
2016,03,28,10,47,3.60
2016,03,28,10,48,3.60
2016,03,28,10,49,3.60
2016,03,28,10,50,3.70
2016,03,28,10,51,3.70
2016,03,28,10,52,3.80
2016,03,28,10,53,3.80
2016,03,28,10,54,3.80
2016,03,28,10,55,3.80
2016,03,28,10,56,3.90
2016,03,28,10,57,3.90
2016,03,28,10,58,3.90
2016,03,28,10,59,3.90
2016,03,28,11,00,3.90
2016,03,28,11,01,4.00
2016,03,28,11,02,4.00
2016,03,28,11,03,4.10
2016,03,28,11,04,4.10
2016,03,28,11,05,4.20
2016,03,28,11,06,4.20
2016,03,28,11,07,4.20
2016,03,28,11,08,4.20
2016,03,28,11,09,4.20
2016,03,28,11,10,4.20
2016,03,28,11,11,4.20
2016,03,28,11,12,4.30
2016,03,28,11,13,4.30
2016,03,28,11,14,4.40
2016,03,28,11,15,4.60
2016,03,28,11,16,4.70
2016,03,28,11,17,4.80
2016,03,28,11,18,4.90
2016,03,28,11,19,5.00
2016,03,28,11,20,5.10
2016,03,28,11,21,5.10
2016,03,28,11,22,5.20
2016,03,28,11,23,5.30
2016,03,28,11,24,5.30
2016,03,28,11,25,5.40
2016,03,28,11,26,5.50
2016,03,28,11,27,5.60
2016,03,28,11,28,5.70
2016,03,28,11,29,5.70
2016,03,28,11,30,5.80
2016,03,28,11,31,5.90
2016,03,28,11,32,6.00
2016,03,28,11,33,6.10
2016,03,28,11,34,6.20
2016,03,28,11,35,6.30
2016,03,28,11,36,6.40
2016,03,28,11,37,6.60
2016,03,28,11,38,6.60
2016,03,28,11,39,6.70
2016,03,28,11,40,6.70
2016,03,28,11,41,6.80
2016,03,28,11,42,6.80
2016,03,28,11,43,6.90
2016,03,28,11,44,6.90
2016,03,28,11,45,7.00
2016,03,28,11,46,7.00
2016,03,28,11,47,7.10
2016,03,28,11,48,7.20
2016,03,28,11,49,7.30
2016,03,28,11,50,7.40
2016,03,28,11,51,7.60
2016,03,28,11,52,7.60
2016,03,28,11,53,7.70
2016,03,28,11,54,7.80
2016,03,28,11,55,7.80
2016,03,28,11,56,7.90
2016,03,28,11,57,7.90
2016,03,28,11,58,8.10
2016,03,28,11,59,8.10
2016,03,28,12,00,8.10
2016,03,28,12,01,8.20
2016,03,28,12,02,8.20
2016,03,28,12,03,8.30
2016,03,28,12,04,8.30
2016,03,28,12,05,8.30
2016,03,28,12,06,8.30
2016,03,28,12,07,8.30
2016,03,28,12,08,8.40
2016,03,28,12,09,8.50
2016,03,28,12,10,8.60
2016,03,28,12,11,8.70
2016,03,28,12,12,8.70
2016,03,28,12,13,8.70
2016,03,28,12,14,8.80
2016,03,28,12,15,8.80
2016,03,28,12,16,8.80
2016,03,28,12,17,8.90
2016,03,28,12,18,8.90
2016,03,28,12,19,9.00
2016,03,28,12,20,9.10
2016,03,28,12,21,9.10
2016,03,28,12,22,9.20
2016,03,28,12,23,9.20
2016,03,28,12,24,9.30
2016,03,28,12,25,9.40
2016,03,28,12,26,9.60
2016,03,28,12,27,9.70
2016,03,28,12,28,9.80
2016,03,28,12,29,9.80
2016,03,28,12,30,9.90
2016,03,28,12,31,10.00
2016,03,28,12,32,10.10
2016,03,28,12,33,10.10
2016,03,28,12,34,10.20
2016,03,28,12,35,10.20
2016,03,28,12,36,10.30
2016,03,28,12,37,10.30
2016,03,28,12,38,10.20
2016,03,28,12,39,10.20
2016,03,28,12,40,10.30
2016,03,28,12,41,10.30
2016,03,28,12,42,10.40
2016,03,28,12,43,10.50
2016,03,28,12,44,10.60
2016,03,28,12,45,10.70
2016,03,28,12,46,10.70
2016,03,28,12,47,10.80
2016,03,28,12,48,10.90
2016,03,28,12,49,10.90
2016,03,28,12,50,10.90
2016,03,28,12,51,10.80
2016,03,28,12,52,10.80
2016,03,28,12,53,10.90
2016,03,28,12,54,11.00
2016,03,28,12,55,11.10
2016,03,28,12,56,11.20
2016,03,28,12,57,11.20
2016,03,28,12,58,11.20
2016,03,28,12,59,11.20
2016,03,28,13,00,11.30
2016,03,28,13,01,11.40
2016,03,28,13,02,11.60
2016,03,28,13,03,11.70
2016,03,28,13,04,11.80
2016,03,28,13,06,12.10
2016,03,28,13,07,12.20
2016,03,28,13,08,12.30
2016,03,28,13,09,12.40
2016,03,28,13,10,12.60
2016,03,28,13,11,12.60
2016,03,28,13,12,12.70
2016,03,28,13,13,12.80
2016,03,28,13,14,12.80
2016,03,28,13,15,12.90
2016,03,28,13,16,12.90
2016,03,28,13,17,12.90
2016,03,28,13,18,12.90
2016,03,28,13,19,12.90
2016,03,28,13,20,12.90
2016,03,28,13,21,13.00
2016,03,28,13,22,13.10
2016,03,28,13,23,13.20
2016,03,28,13,24,13.30
2016,03,28,13,25,13.30
2016,03,28,13,26,13.40
2016,03,28,13,27,13.50
2016,03,28,13,28,13.60
2016,03,28,13,29,13.70
2016,03,28,13,30,13.70
2016,03,28,13,31,13.80
2016,03,28,13,32,13.80
2016,03,28,13,33,13.80
2016,03,28,13,34,13.80
2016,03,28,13,35,13.80
2016,03,28,13,36,13.90
2016,03,28,13,37,13.90
2016,03,28,13,38,14.00
2016,03,28,13,39,14.10
2016,03,28,13,40,14.10
2016,03,28,13,41,14.20
2016,03,28,13,42,14.30
2016,03,28,13,43,14.40
2016,03,28,13,44,14.40
2016,03,28,13,45,14.50
2016,03,28,13,46,14.50
2016,03,28,13,47,14.60
2016,03,28,13,48,14.60
2016,03,28,13,49,14.60
2016,03,28,13,51,14.60
2016,03,28,13,52,14.60
2016,03,28,13,53,14.50
2016,03,28,13,54,14.50
2016,03,28,13,55,14.40
2016,03,28,13,56,14.50
2016,03,28,13,57,14.60
2016,03,28,13,58,14.60
2016,03,28,13,59,14.70
2016,03,28,14,00,14.80
2016,03,28,14,01,14.80
2016,03,28,14,02,14.90
2016,03,28,14,03,14.90
2016,03,28,14,04,14.90
2016,03,28,14,06,14.90
2016,03,28,14,07,15.00
2016,03,28,14,08,15.10
2016,03,28,14,09,15.10
2016,03,28,14,10,15.10
2016,03,28,14,11,15.10
2016,03,28,14,12,15.10
2016,03,28,14,13,15.20
2016,03,28,14,14,15.20
2016,03,28,14,15,15.20
2016,03,28,14,16,15.20
2016,03,28,14,17,15.20
2016,03,28,14,18,15.20
2016,03,28,14,19,15.30
2016,03,28,14,20,15.30
2016,03,28,14,21,15.40
2016,03,28,14,22,15.50
2016,03,28,14,23,15.60
2016,03,28,14,24,15.60
2016,03,28,14,25,15.60
2016,03,28,14,26,15.60
2016,03,28,14,27,15.60
2016,03,28,14,28,15.70
2016,03,28,14,29,15.70
2016,03,28,14,30,15.70
2016,03,28,14,31,15.80
2016,03,28,14,32,15.80
2016,03,28,14,33,15.70
2016,03,28,14,34,15.70
2016,03,28,14,35,15.60
2016,03,28,14,36,15.60
2016,03,28,14,37,15.60
2016,03,28,14,38,15.50
2016,03,28,14,39,15.40
2016,03,28,14,40,15.50
2016,03,28,14,41,15.50
2016,03,28,14,42,15.60
2016,03,28,14,43,15.60
2016,03,28,14,44,15.60
2016,03,28,14,45,15.60
2016,03,28,14,46,15.60
2016,03,28,14,47,15.70
2016,03,28,14,48,15.60
2016,03,28,14,49,15.70
2016,03,28,14,50,15.70
2016,03,28,14,51,15.80
2016,03,28,14,52,15.80
2016,03,28,14,53,15.80
2016,03,28,14,54,15.80
2016,03,28,14,55,15.70
2016,03,28,14,56,15.70
2016,03,28,14,57,15.70
2016,03,28,14,58,15.70
2016,03,28,14,59,15.70
2016,03,28,15,00,15.70
2016,03,28,15,01,15.80
2016,03,28,15,02,15.90
2016,03,28,15,03,16.00
2016,03,28,15,04,16.00
2016,03,28,15,05,16.00
2016,03,28,15,06,16.00
2016,03,28,15,07,16.10
2016,03,28,15,08,16.10
2016,03,28,15,09,16.10
2016,03,28,15,10,16.10
2016,03,28,15,11,16.10
2016,03,28,15,12,16.10
2016,03,28,15,13,16.10
2016,03,28,15,14,16.10
2016,03,28,15,15,16.10
2016,03,28,15,16,16.10
2016,03,28,15,17,16.20
2016,03,28,15,18,16.20
2016,03,28,15,19,16.20
2016,03,28,15,20,16.30
2016,03,28,15,21,16.40
2016,03,28,15,22,16.40
2016,03,28,15,23,16.40
2016,03,28,15,24,16.50
2016,03,28,15,25,16.50
2016,03,28,15,26,16.60
2016,03,28,15,27,16.60
2016,03,28,15,28,16.60
2016,03,28,15,29,16.60
2016,03,28,15,30,16.70
2016,03,28,15,31,16.70
2016,03,28,15,32,16.70
2016,03,28,15,33,16.70
2016,03,28,15,34,16.70
2016,03,28,15,35,16.70
2016,03,28,15,36,16.60
2016,03,28,15,37,16.40
2016,03,28,15,38,16.40
2016,03,28,15,39,16.50
2016,03,28,15,40,16.60
2016,03,28,15,41,16.60
2016,03,28,15,42,16.60
2016,03,28,15,43,16.60
2016,03,28,15,44,16.60
2016,03,28,15,45,16.60
2016,03,28,15,46,16.70
2016,03,28,15,47,16.80
2016,03,28,15,48,16.90
2016,03,28,15,49,16.90
2016,03,28,15,50,17.10
2016,03,28,15,51,17.10
2016,03,28,15,52,17.10
2016,03,28,15,53,17.20
2016,03,28,15,54,17.20
2016,03,28,15,55,17.30
2016,03,28,15,56,17.30
2016,03,28,15,57,17.30
2016,03,28,15,58,17.30
2016,03,28,15,59,17.30
2016,03,28,16,00,17.40
2016,03,28,16,01,17.40
2016,03,28,16,02,17.40
2016,03,28,16,03,17.40
2016,03,28,16,04,17.50
2016,03,28,16,05,17.40
2016,03,28,16,06,17.40
2016,03,28,16,07,17.40
2016,03,28,16,08,17.30
2016,03,28,16,09,17.40
2016,03,28,16,10,17.40
2016,03,28,16,11,17.30
2016,03,28,16,12,17.30
2016,03,28,16,13,17.30
2016,03,28,16,14,17.40
2016,03,28,16,15,17.40
2016,03,28,16,16,17.40
2016,03,28,16,17,17.40
2016,03,28,16,18,17.30
2016,03,28,16,19,17.30
2016,03,28,16,20,17.30
2016,03,28,16,21,17.30
2016,03,28,16,22,17.30
2016,03,28,16,23,17.30
2016,03,28,16,24,17.30
2016,03,28,16,25,17.30
2016,03,28,16,26,17.30
2016,03,28,16,27,17.30
2016,03,28,16,28,17.30
2016,03,28,16,29,17.30
2016,03,28,16,30,17.30
2016,03,28,16,31,17.30
2016,03,28,16,32,17.30
2016,03,28,16,33,17.30
2016,03,28,16,34,17.30
2016,03,28,16,35,17.30
2016,03,28,16,36,17.40
2016,03,28,16,37,17.40
2016,03,28,16,38,17.40
2016,03,28,16,39,17.30
2016,03,28,16,40,17.30
2016,03,28,16,41,17.30
2016,03,28,16,42,17.30
2016,03,28,16,43,17.30
2016,03,28,16,44,17.30
2016,03,28,16,45,17.30
2016,03,28,16,46,17.30
2016,03,28,16,47,17.30
2016,03,28,16,48,17.30
2016,03,28,16,49,17.30
2016,03,28,16,50,17.30
2016,03,28,16,51,17.30
2016,03,28,16,52,17.30
2016,03,28,16,53,17.20
2016,03,28,16,54,17.20
2016,03,28,16,55,17.20
2016,03,28,16,56,17.20
2016,03,28,16,57,17.20
2016,03,28,16,58,17.10
2016,03,28,16,59,17.10
2016,03,28,17,00,17.00
2016,03,28,17,01,17.00
2016,03,28,17,02,17.10
2016,03,28,17,03,17.10
2016,03,28,17,04,17.10
2016,03,28,17,05,17.10
2016,03,28,17,06,17.20
2016,03,28,17,07,17.20
2016,03,28,17,08,17.20
2016,03,28,17,09,17.20
2016,03,28,17,10,17.30
2016,03,28,17,11,17.30
2016,03,28,17,12,17.40
2016,03,28,17,13,17.40
2016,03,28,17,14,17.50
2016,03,28,17,15,17.50
2016,03,28,17,16,17.60
2016,03,28,17,17,17.60
2016,03,28,17,18,17.60
2016,03,28,17,19,17.60
2016,03,28,17,20,17.50
2016,03,28,17,21,17.40
2016,03,28,17,22,17.40
2016,03,28,17,23,17.40
2016,03,28,17,24,17.40
2016,03,28,17,25,17.40
2016,03,28,17,26,17.40
2016,03,28,17,27,17.40
2016,03,28,17,28,17.30
2016,03,28,17,29,17.30
2016,03,28,17,30,17.20
2016,03,28,17,31,17.20
2016,03,28,17,32,17.10
2016,03,28,17,33,17.10
2016,03,28,17,34,17.00
2016,03,28,17,35,16.90
2016,03,28,17,36,16.90
2016,03,28,17,37,16.90
2016,03,28,17,38,16.80
2016,03,28,17,39,16.80
2016,03,28,17,40,16.70
2016,03,28,17,41,16.70
2016,03,28,17,42,16.70
2016,03,28,17,43,16.70
2016,03,28,17,44,16.70
2016,03,28,17,45,16.60
2016,03,28,17,46,16.60
2016,03,28,17,47,16.50
2016,03,28,17,48,16.40
2016,03,28,17,49,16.40
2016,03,28,17,50,16.30
2016,03,28,17,51,16.20
2016,03,28,17,52,16.10
2016,03,28,17,53,15.90
2016,03,28,17,54,15.80
2016,03,28,17,55,15.70
2016,03,28,17,56,15.60
2016,03,28,17,57,15.60